Weather History for KRST - December, 2013

Change the Weather History Date:

Friday, December 13, 2013

  Actual Average Record
Temperature  
Mean Temperature 17 °F 20 °F  
Max Temperature 21 °F 27 °F 55 °F (1913)
Min Temperature 13 °F 13 °F -21 °F (1958)
Degree Days  
Heating Degree Days 48 45  
Month to date heating degree days 657 554  
Since 1 July heating degree days 2350 2226  
Cooling Degree Days 0 0  
Month to date cooling degree days 0 0  
Year to date cooling degree days 656 585  
Moisture  
Dew Point 10 °F    
Average Humidity 77    
Maximum Humidity 92    
Minimum Humidity 62    
Precipitation  
Precipitation 0.00 in 0.04 in 0.58 in (1975)
Month to date precipitation 0.51 0.61  
Year to date precipitation 41.17 32.40  
Snow  
Snow 0.00 in 0.40 in 3.00 in (1983)
Month to date snowfall 2.4 5.5  
Since 1 July snowfall 3.7 12.4  
Snow Depth 2.00 in    
Sea Level Pressure  
Sea Level Pressure 30.18 in    
Wind  
Wind Speed 12 mph (ENE)    
Max Wind Speed 20 mph    
Max Gust Speed 22 mph    
Visibility 9 miles    
Events      
T = Trace of Precipitation, MM = Missing Value Source: NWS Daily Summary

Daily Weather History Graph

Daily Weather History Graph

Search for Another Location

Airport or City:

Trip Planner

Search our weather history database for the weather conditions in past years. The results will help you decide how hot, cold, wet, or windy it might be!

Date:

Astronomy

Dec. 13, 2013 Rise Set
Actual Time 7:36 AM CST 4:32 PM CST
Civil Twilight 7:03 AM CST 5:05 PM CST
Nautical Twilight 6:26 AM CST 5:41 PM CST
Astronomical Twilight 5:51 AM CST 6:16 PM CST
Moon 2:20 PM CST (12/13) 3:53 AM CST (12/13)
Length of Visible Light 10h 02m
Length of Day
8h 56m
Waxing Gibbous, 88% of the Moon is Illuminated
Dec 13
Waxing Gibbous
Dec 17
Full
Dec 25
Last Quarter
Jan 1
New
Jan 7
First Quarter

Hourly Weather History & Observations

Time (CST) Temp. Windchill Dew Point Humidity Pressure Visibility Wind Dir Wind Speed Gust Speed Precip Events Conditions
12:54 AM 17.1 °F 10.0 °F 12.0 °F 81% 30.09 in 8.0 mi NE 4.6 mph - N/A   Overcast
1:54 AM 18.0 °F 12.7 °F 12.9 °F 81% 30.14 in 8.0 mi ESE 3.5 mph - N/A   Overcast
2:54 AM 17.1 °F - 12.0 °F 81% 30.15 in 7.0 mi Calm Calm - N/A   Overcast
3:54 AM 15.1 °F 5.2 °F 10.9 °F 84% 30.13 in 7.0 mi NE 6.9 mph - N/A   Partly Cloudy
4:54 AM 12.9 °F 3.8 °F 10.0 °F 88% 30.14 in 6.0 mi East 5.8 mph - N/A   Mostly Cloudy
5:54 AM 16.0 °F 5.3 °F 10.9 °F 81% 30.15 in 7.0 mi East 8.1 mph - N/A   Clear
6:54 AM 16.0 °F 2.9 °F 10.9 °F 81% 30.15 in 8.0 mi ENE 11.5 mph - N/A   Clear
7:54 AM 16.0 °F 3.6 °F 10.9 °F 81% 30.17 in 6.0 mi ENE 10.4 mph - N/A   Haze
8:54 AM 17.1 °F 3.6 °F 10.9 °F 77% 30.19 in 6.0 mi ENE 12.7 mph - N/A   Haze
9:54 AM 17.1 °F 3.0 °F 10.0 °F 74% 30.19 in 7.0 mi ENE 13.8 mph - N/A   Clear
10:54 AM 18.0 °F 4.2 °F 10.0 °F 71% 30.18 in 7.0 mi ENE 13.8 mph - N/A   Clear
11:54 AM 19.0 °F 6.1 °F 10.9 °F 71% 30.17 in 9.0 mi ENE 12.7 mph - N/A   Clear
12:54 PM 19.9 °F 6.2 °F 10.0 °F 65% 30.16 in 9.0 mi ENE 15.0 mph - N/A   Clear
1:54 PM 19.9 °F 5.7 °F 10.9 °F 68% 30.14 in 10.0 mi ENE 16.1 mph - N/A   Clear
2:54 PM 19.9 °F 5.7 °F 10.0 °F 65% 30.15 in 10.0 mi ENE 16.1 mph - N/A   Clear
3:54 PM 19.0 °F 5.6 °F 9.0 °F 65% 30.16 in 10.0 mi NE 13.8 mph - N/A   Clear
4:54 PM 17.1 °F 2.0 °F 8.1 °F 68% 30.18 in 10.0 mi NE 16.1 mph - N/A   Clear
5:54 PM 16.0 °F 1.1 °F 8.1 °F 71% 30.20 in 10.0 mi NE 15.0 mph - N/A   Clear
6:54 PM 16.0 °F 1.7 °F 8.1 °F 71% 30.22 in 10.0 mi NE 13.8 mph - N/A   Clear
7:54 PM 16.0 °F 1.1 °F 8.1 °F 71% 30.23 in 10.0 mi ENE 15.0 mph - N/A   Clear
8:54 PM 15.1 °F -1.1 °F 7.0 °F 70% 30.23 in 10.0 mi NE 17.3 mph - N/A   Mostly Cloudy
9:03 PM 15.1 °F -1.1 °F 7.0 °F 70% 30.15 in 10.0 mi ENE 17.3 mph - N/A   Mostly Cloudy
9:54 PM 15.1 °F -0.6 °F 7.0 °F 70% 30.24 in 10.0 mi NE 16.1 mph - N/A   Overcast
10:54 PM 15.1 °F 2.5 °F 8.1 °F 74% 30.25 in 10.0 mi NE 10.4 mph - N/A   Overcast
11:17 PM 15.1 °F 3.3 °F 8.1 °F 74% 30.17 in 10.0 mi NE 9.2 mph - N/A   Overcast
11:54 PM 15.1 °F 1.8 °F 8.1 °F 74% 30.25 in 10.0 mi ENE 11.5 mph - N/A   Overcast